Theta_e
307 298 297 296 299 301 302 302 301 301 301 300 299 298 295 295 296 300 301 298 299 295 295 296 296 296 297 299 301 302 303 302 301 301 302 303 303 304 304 304 304 304 303 305 304 303 302 301 300 299 299 298 298 298 297 297 297 296 296 296 295 296 296 295 295 294 294 293 293 294 293 292 293 293 293 293 293 293 293 293 293 293 292 293 292 291
302 296 297 300 301 302 303 304 303 301 300 298 297 296 295 297 295 300 300 295 298 294 295 297 296 296 297 299 300 301 301 300 300 301 302 303 303 304 304 304 304 305 305 304 302 302 301 299 299 298 297 297 296 296 296 296 296 296 296 296 295 295 294 294 294 294 294 294 294 294 293 293 293 292 291 292 292 293 293 293 292 292 292 292 291 291
297 295 299 302 303 302 301 301 301 299 298 299 296 296 295 296 299 301 301 295 295 293 292 296 294 295 297 299 300 300 300 301 302 303 303 303 303 304 305 305 305 304 302 301 301 300 299 299 297 296 296 296 296 296 295 296 296 296 296 296 295 294 294 294 294 294 294 295 295 295 294 294 293 294 294 294 293 293 292 293 292 292 292 291 291 291
292 297 301 303 303 301 298 297 297 297 298 296 296 294 292 298 297 293 297 293 294 294 294 295 293 293 297 299 299 301 301 301 304 304 304 305 304 304 304 305 305 302 301 300 299 298 297 297 296 295 295 295 296 295 295 295 295 295 295 295 295 294 294 294 294 295 295 296 295 296 294 294 293 291 291 292 292 292 291 291 292 291 291 291 290 290
296 300 298 301 302 300 298 297 296 295 294 297 297 296 295 297 297 297 297 295 297 297 295 293 292 294 297 296 298 300 302 302 302 303 303 304 305 306 308 308 307 303 302 300 299 298 297 296 295 295 295 295 295 295 294 295 294 294 295 295 295 294 294 294 294 295 295 294 293 292 292 292 290 290 290 290 289 290 291 291 291 291 291 291 290 290
297 301 300 298 298 298 299 296 296 297 294 296 299 298 298 299 297 298 299 294 293 292 295 294 288 290 297 298 298 301 297 297 300 299 300 301 303 304 303 304 305 305 304 302 299 298 297 296 296 295 294 294 294 294 294 295 295 295 295 295 295 295 294 294 295 294 293 292 291 290 288 287 287 288 288 288 288 289 289 289 291 291 291 290 289 289
298 299 298 299 299 297 297 296 299 298 294 293 296 301 300 298 297 297 295 294 288 288 294 294 288 285 294 294 296 298 298 297 299 299 299 302 304 305 305 306 303 301 301 302 300 298 296 296 295 294 293 294 293 294 295 295 295 295 295 295 295 294 294 295 294 294 293 291 291 290 290 290 289 288 290 291 291 291 291 291 290 290 290 290 289 289
299 295 296 297 298 297 296 294 298 298 295 293 294 296 297 296 295 295 295 293 290 295 296 295 293 286 286 293 297 298 297 297 298 299 300 301 302 303 304 306 303 301 302 301 299 298 297 296 295 293 293 293 293 295 295 295 294 294 294 294 295 294 294 294 293 293 292 291 291 291 291 291 291 290 290 291 290 290 290 289 289 289 289 289 289 288
299 296 295 295 295 294 294 297 302 301 296 295 292 296 295 295 295 294 293 291 292 291 287 291 294 287 287 294 297 297 294 295 296 297 299 301 302 303 304 307 304 303 303 301 300 298 297 296 295 294 293 294 294 294 294 294 294 294 294 295 295 294 294 293 293 293 292 292 291 291 291 290 291 291 291 290 290 289 289 288 288 288 288 288 288 288
297 298 299 298 296 294 298 291 295 300 295 294 294 295 295 295 294 294 291 291 291 288 284 289 292 286 287 294 294 296 295 294 295 297 299 301 303 304 306 308 305 303 303 302 301 300 298 297 296 295 294 293 293 294 295 295 295 294 294 294 293 293 293 293 292 292 291 291 291 290 290 290 289 289 289 289 288 288 288 287 287 287 287 287 287 287
295 294 296 297 297 298 292 290 291 292 293 294 296 295 293 293 293 292 292 290 288 283 286 291 292 290 284 292 293 292 293 296 298 299 300 302 304 304 307 308 305 303 303 301 301 300 299 298 296 295 293 293 293 295 294 294 294 294 294 293 292 292 292 292 292 291 291 291 291 290 290 290 289 289 289 287 287 287 287 286 287 287 287 287 287 287
295 294 295 297 298 295 296 292 292 292 294 296 293 292 293 291 291 289 288 289 283 283 289 293 292 292 283 288 294 297 299 299 299 298 300 301 302 304 308 306 304 303 302 301 300 299 299 296 295 294 292 292 292 293 292 293 293 293 293 292 291 291 291 291 291 290 290 290 290 290 290 289 290 289 288 287 287 287 286 286 286 287 286 286 287 286
292 293 296 297 296 297 294 295 291 292 292 294 292 292 287 286 287 284 285 281 283 283 289 293 294 289 287 291 296 297 298 299 300 301 301 301 302 303 308 307 305 303 302 300 299 298 297 295 294 292 292 291 291 291 291 292 292 293 292 292 291 290 291 290 290 290 290 289 289 289 289 289 289 289 288 287 287 287 286 286 286 285 285 285 285 285
294 297 296 297 295 296 298 291 291 288 289 290 289 289 286 283 282 280 284 286 286 289 292 290 294 287 292 294 298 297 299 301 301 302 303 302 302 303 306 310 304 303 301 299 298 297 297 295 294 293 292 291 291 291 291 292 292 292 292 291 290 290 291 290 289 289 288 288 288 288 288 288 288 287 287 287 286 286 286 286 285 285 284 284 284 284
288 289 292 294 292 298 296 296 297 296 290 290 295 292 289 288 284 280 283 281 284 287 288 291 285 284 285 290 299 299 301 302 302 302 303 304 304 306 301 304 302 300 299 298 297 296 296 295 294 293 292 292 291 290 290 291 291 291 291 290 290 290 290 289 288 288 288 287 288 287 288 288 287 287 286 286 286 285 285 285 284 284 284 283 284 284
290 290 297 299 298 297 295 299 301 296 292 293 294 296 290 288 293 285 287 287 285 284 284 285 284 290 291 298 300 301 301 301 302 301 302 302 303 306 301 301 299 297 296 297 296 295 295 295 294 293 292 292 291 290 290 290 291 291 290 290 290 290 289 288 288 288 287 287 287 287 286 286 286 286 286 285 285 285 285 284 284 283 283 283 283 283
290 288 296 295 295 296 295 297 298 300 287 291 292 287 291 297 294 289 288 288 285 284 282 289 288 291 296 296 298 298 299 299 300 300 301 301 302 303 303 302 299 298 296 295 295 295 294 294 293 293 292 291 291 290 290 290 290 291 290 290 290 289 288 288 287 287 287 287 286 286 285 285 285 284 284 283 283 283 284 284 283 283 283 283 282 282
289 292 291 293 289 292 289 293 296 294 297 291 286 291 296 298 295 289 283 286 284 281 283 288 286 287 288 285 298 296 296 297 298 298 300 300 302 302 303 302 301 299 297 296 295 295 294 293 293 292 292 291 290 290 290 290 291 291 290 290 289 289 287 287 287 286 286 286 285 285 285 284 284 283 283 283 282 282 282 282 282 282 281 281 282 281
297 286 293 292 292 291 291 294 293 295 296 292 291 296 289 284 283 288 286 278 278 278 281 285 287 288 290 289 294 293 294 295 297 299 299 299 301 301 303 302 301 301 298 295 294 294 293 293 292 292 291 291 291 290 290 290 290 290 290 289 289 288 287 287 287 287 286 286 286 285 284 283 283 282 282 282 282 281 280 280 280 280 280 281 281 281
294 286 288 287 290 291 291 292 286 289 293 292 294 291 293 289 287 285 286 286 285 280 281 281 285 284 293 293 295 295 296 296 297 297 298 299 300 301 303 302 301 301 299 297 295 294 293 293 292 291 291 290 290 290 290 289 289 289 289 289 289 288 287 287 286 286 285 285 285 284 283 283 282 282 281 281 280 280 280 280 280 280 280 280 280 280
288 291 284 286 288 291 286 289 288 291 287 286 287 286 289 287 290 289 290 287 284 282 281 281 280 285 293 296 296 297 297 298 298 298 300 300 301 301 303 302 301 301 300 298 296 295 294 293 292 292 291 291 290 290 289 289 288 288 288 288 288 287 286 286 286 285 285 284 283 283 282 281 281 280 280 280 280 279 279 280 280 280 280 280 279 279
288 287 285 286 283 285 289 294 293 295 294 291 289 287 289 286 284 281 280 290 286 285 281 281 280 287 295 298 298 297 299 299 300 300 301 302 302 303 303 302 301 301 300 299 298 296 294 293 292 291 291 291 289 288 288 288 288 288 287 287 288 287 286 285 285 284 284 283 282 282 281 281 280 280 280 279 279 279 279 279 279 279 279 278 278 278
295 290 287 286 287 288 292 296 297 298 298 296 293 290 293 290 289 285 280 284 286 286 287 286 283 285 296 299 299 299 299 299 300 302 300 302 303 303 302 302 302 301 300 299 298 296 295 293 292 291 289 289 288 288 288 288 287 287 287 287 287 286 286 285 285 284 283 282 281 281 281 280 279 279 279 279 279 278 278 279 279 279 278 278 278 278
294 287 285 286 291 294 293 290 293 292 294 292 293 294 292 288 290 288 287 288 286 286 283 283 280 285 295 299 299 299 299 300 300 300 300 300 302 301 302 302 301 300 300 299 298 296 294 292 291 290 289 288 288 287 287 287 287 287 287 287 287 286 285 285 284 283 282 281 281 281 280 279 279 279 278 278 278 278 278 278 278 278 277 277 277 277
288 286 286 283 284 286 289 290 288 289 291 289 289 292 293 294 293 292 291 290 284 285 285 283 278 285 294 299 298 298 298 298 299 299 300 300 301 301 300 300 299 299 298 296 295 293 292 290 290 289 289 288 288 288 287 287 287 287 286 286 286 286 285 284 283 282 281 281 280 280 279 279 279 278 278 278 278 278 278 278 278 278 277 277 276 276
289 287 286 280 278 276 277 278 281 284 284 288 291 291 292 291 291 288 284 286 282 285 286 283 283 289 294 296 296 297 297 298 298 299 298 300 301 300 300 300 298 297 296 295 296 292 290 290 290 289 289 289 288 288 287 287 287 286 286 286 286 285 285 283 282 282 281 280 280 279 279 279 278 278 278 278 278 278 278 278 277 277 277 277 276 276
286 288 288 286 284 282 284 287 292 291 288 284 287 288 290 291 291 291 288 285 282 285 285 286 287 287 290 293 294 295 296 296 296 298 298 297 296 298 300 300 299 297 295 294 294 293 291 290 289 289 289 289 288 288 287 287 286 286 286 286 286 285 284 283 282 281 280 280 279 279 278 278 278 278 278 278 278 278 277 277 277 276 276 276 275 274
286 284 287 288 288 288 289 290 291 292 289 288 287 287 289 289 288 286 285 283 289 285 281 288 290 287 289 292 293 294 295 296 297 297 298 298 298 296 297 297 296 296 296 295 294 292 291 290 290 289 289 288 288 288 287 287 286 286 285 285 285 284 283 282 281 281 280 280 279 279 278 278 279 278 278 278 278 277 277 276 276 275 275 274 273 272
285 284 288 287 287 289 290 289 290 290 290 290 290 289 288 289 287 284 285 288 290 285 282 288 290 288 290 293 294 295 296 296 297 297 299 299 298 298 297 295 295 295 295 295 294 294 292 291 291 290 289 288 288 287 286 286 286 286 286 285 285 283 282 282 281 280 280 279 279 279 279 279 279 278 278 277 277 276 275 275 274 274 273 272 271 271
287 285 287 287 285 287 288 288 289 288 289 289 289 289 291 290 289 288 287 289 289 287 289 289 290 289 292 293 295 296 297 297 298 298 298 297 297 297 297 296 296 297 295 295 295 295 294 293 293 292 290 289 288 287 286 286 285 285 285 284 284 282 282 281 280 279 279 279 279 279 279 278 277 277 276 276 275 274 274 273 272 271 270 270 270 269
287 283 289 286 284 284 286 288 289 289 288 286 287 288 288 288 289 289 290 290 289 288 290 289 288 288 293 296 296 297 297 297 297 296 296 297 297 297 297 296 297 297 297 297 296 296 296 295 294 294 292 289 288 287 286 286 285 285 284 284 282 282 281 280 279 279 278 278 278 278 278 277 276 275 274 274 274 273 272 271 270 269 269 268 268 268
288 285 289 286 282 281 286 286 287 288 286 285 284 285 286 286 285 287 287 289 288 286 288 288 286 286 292 296 296 296 296 295 295 295 296 296 297 296 296 296 296 296 296 296 296 297 296 294 294 294 293 291 289 287 286 286 285 285 284 283 282 281 280 280 279 278 278 278 278 277 276 275 275 274 273 272 271 270 269 269 268 267 267 267 267 267
287 285 284 284 280 279 285 286 285 285 283 280 281 285 287 287 288 289 290 291 290 291 287 285 286 292 294 295 294 295 295 295 295 295 296 296 297 297 296 296 296 296 296 297 297 297 297 296 294 293 293 292 289 288 287 286 285 284 284 282 282 280 279 279 278 278 278 277 277 276 275 274 273 272 271 270 269 268 267 267 266 266 266 266 267 267
287 286 284 286 279 280 284 284 285 281 274 276 287 291 290 287 287 286 286 289 291 292 289 292 292 295 295 295 294 294 294 295 296 296 297 297 297 297 297 297 297 297 298 298 298 298 298 298 296 294 293 292 290 288 287 286 285 284 283 281 280 278 278 278 278 278 277 276 275 275 274 273 271 270 269 268 267 266 266 265 265 266 266 266 267 266
286 286 284 286 281 280 284 283 280 274 275 286 291 293 293 292 291 289 290 291 292 293 293 292 293 293 295 296 296 296 296 297 297 296 297 298 298 297 296 296 297 297 297 298 297 297 297 297 294 292 290 290 288 287 286 285 284 282 281 280 278 278 277 277 277 277 276 275 274 273 272 271 270 269 268 267 266 265 265 265 265 266 266 266 266 266
286 286 285 284 284 284 281 280 274 274 285 290 292 292 294 293 292 290 288 290 292 292 292 291 292 294 295 296 296 297 296 296 296 296 297 298 298 297 296 296 297 297 297 297 297 297 295 293 292 291 290 288 287 285 285 284 283 281 280 279 278 277 277 277 276 275 275 274 272 272 271 270 269 268 267 266 265 265 265 265 265 265 266 266 267 267
289 287 287 282 286 278 279 280 279 287 284 286 288 289 290 288 288 287 283 287 292 293 293 292 293 294 295 295 295 296 296 295 293 294 297 297 297 297 296 296 297 297 298 298 298 297 295 294 292 291 288 286 286 284 284 283 282 281 279 278 277 277 276 276 275 274 273 272 272 271 271 270 269 267 266 266 265 265 265 265 265 265 266 265 266 266
292 286 286 283 281 286 279 278 279 278 275 282 290 293 296 295 294 294 290 286 295 295 296 294 293 294 294 294 294 295 295 292 289 291 296 298 298 296 297 297 297 297 297 297 294 293 293 291 290 289 287 286 285 284 284 282 282 280 278 277 276 275 275 275 274 273 273 272 271 271 270 270 268 267 266 265 265 264 265 265 266 265 266 265 265 266
292 291 288 285 281 284 281 278 276 276 279 288 289 294 296 297 296 294 288 283 292 295 296 295 294 294 294 293 294 294 292 288 289 292 296 298 298 297 296 297 297 297 297 297 295 293 291 290 289 287 287 285 284 284 283 281 280 278 277 276 275 275 274 274 273 272 272 271 270 269 269 268 267 267 266 265 265 265 265 264 265 265 266 265 266 265
287 287 286 282 280 282 281 279 277 282 282 289 292 293 296 297 297 291 280 280 293 295 296 295 294 294 294 294 294 293 290 288 289 293 297 298 297 296 297 296 296 295 295 293 292 292 290 287 286 285 285 284 284 283 281 281 279 277 276 275 275 274 274 273 273 272 271 269 268 267 267 267 266 265 265 264 264 264 264 265 264 264 265 265 265 265
283 284 285 279 281 281 282 280 283 283 290 293 293 295 296 297 293 283 277 286 295 295 296 296 295 295 295 294 294 291 293 294 295 297 297 297 293 292 294 294 293 293 294 291 290 288 287 285 286 285 285 285 283 281 280 279 278 277 275 274 273 273 274 273 272 271 269 268 266 266 265 265 265 264 264 264 263 263 264 264 264 264 264 263 265 265
283 284 283 284 281 280 281 280 279 284 289 294 295 296 297 292 281 280 290 297 296 296 297 297 295 296 295 295 295 295 296 297 296 296 295 296 296 296 293 291 289 287 287 287 287 286 285 284 284 284 283 283 281 280 279 278 277 276 274 273 273 274 274 272 271 269 267 266 265 264 264 263 263 263 263 263 263 262 263 264 264 264 263 264 264 262
284 283 279 281 283 283 281 279 278 275 287 296 294 293 295 287 287 295 296 296 296 296 296 296 296 296 296 295 296 296 296 296 295 295 295 295 295 295 294 290 288 288 286 284 284 284 285 283 283 283 282 280 279 279 278 277 276 275 274 273 273 273 272 270 269 267 266 265 264 263 262 262 262 261 261 262 262 262 263 263 262 262 263 263 262 262
289 284 283 284 286 280 279 277 278 285 291 296 294 287 292 294 297 298 296 295 297 297 296 296 296 296 296 295 295 295 295 295 295 295 295 295 295 295 294 291 288 288 287 286 285 284 283 283 283 282 281 278 278 278 278 277 276 274 273 273 273 271 269 268 267 266 264 263 262 262 261 261 261 261 261 261 262 262 263 262 262 262 263 263 263 264
291 286 288 283 289 285 283 286 290 294 295 297 297 296 297 299 299 299 298 297 296 297 298 296 296 297 297 296 296 295 295 295 295 296 295 295 296 295 293 290 288 287 286 285 284 283 283 283 282 280 278 276 276 276 277 277 275 273 273 273 270 269 267 267 266 264 263 262 261 261 260 260 261 261 261 261 262 262 262 262 262 262 263 263 264 264
287 288 288 286 284 292 292 293 294 294 294 296 298 299 298 298 299 297 296 295 296 297 298 297 297 297 297 297 295 294 295 296 296 296 296 296 295 295 293 291 288 287 286 285 283 282 281 282 281 279 276 275 275 276 276 276 276 272 273 270 269 268 267 265 264 263 262 261 261 260 260 260 260 261 261 261 262 263 263 262 262 263 264 264 264 264
287 287 286 282 285 283 280 292 290 292 294 296 296 298 298 295 296 296 295 294 293 293 292 293 294 293 293 292 292 293 293 294 294 295 295 295 295 294 292 290 289 287 285 283 283 281 280 279 278 277 275 274 274 275 276 276 276 274 271 268 269 267 265 263 263 262 261 261 260 260 260 260 260 260 260 261 262 263 263 263 264 264 264 264 264 264
279 290 280 281 281 280 281 286 287 288 290 293 293 293 293 295 295 295 294 293 292 291 292 293 294 293 293 292 292 291 292 293 293 293 293 293 293 293 292 290 288 286 285 284 282 279 279 278 277 276 275 274 274 274 274 275 274 272 269 268 267 266 265 264 263 262 261 260 260 260 261 261 260 260 260 261 262 262 263 263 264 264 264 264 264 263
281 283 275 279 277 279 281 282 284 286 288 289 292 294 293 292 292 293 294 294 293 293 293 294 294 293 294 293 293 292 290 291 291 292 291 292 292 291 292 291 288 286 285 282 280 278 278 278 277 276 275 274 273 273 274 274 274 269 268 267 265 264 264 264 263 262 260 260 260 260 261 261 260 261 261 261 262 263 264 263 263 264 265 265 265 265
279 275 279 278 274 275 276 279 283 279 278 284 290 294 293 293 293 292 293 292 292 292 292 293 294 295 294 293 293 293 290 291 292 293 292 292 292 292 291 291 289 287 284 282 281 279 278 278 277 276 274 273 272 272 272 273 270 268 268 266 265 264 264 263 262 261 260 260 260 260 260 260 261 261 261 261 261 261 261 263 266 266 264 264 267 268
278 278 279 276 276 275 281 284 285 285 284 287 290 292 291 291 291 289 288 289 290 291 292 292 292 292 292 293 294 292 291 291 292 292 291 292 292 293 293 292 290 287 285 282 279 278 277 277 276 275 273 273 271 271 271 271 267 267 266 265 264 265 263 262 261 261 260 260 260 260 260 260 260 260 261 261 261 261 261 261 264 268 268 268 268 269
Wind_Speed
2 7 8 11 13 13 13 15 17 16 13 11 8 9 14 15 17 15 17 6 7 6 14 17 19 20 20 19 19 18 18 19 20 20 20 21 17 15 15 15 15 14 13 9 12 13 15 14 13 13 13 13 15 14 17 16 16 16 15 14 14 12 13 11 11 10 9 9 8 8 8 7 7 6 6 5 5 4 4 5 3 3 2 2 1 1
4 9 14 18 17 16 11 7 11 14 10 11 13 12 12 12 15 13 12 9 5 6 11 13 16 19 18 18 19 18 18 22 22 22 23 21 19 16 17 16 13 12 5 9 9 11 13 13 13 13 11 14 16 14 16 16 17 15 15 15 13 12 12 12 11 10 9 9 8 8 8 7 7 7 6 6 6 5 4 4 4 4 3 3 2 2
7 12 18 17 10 1 1 5 8 11 13 10 10 10 10 13 13 14 12 7 4 4 12 12 16 18 18 17 19 19 21 19 21 21 18 17 16 15 15 13 10 9 9 10 10 12 12 13 15 12 12 13 15 15 17 16 16 15 14 13 13 12 12 11 11 10 9 8 8 8 8 7 6 4 4 4 5 5 4 5 4 4 3 3 3 3
8 13 21 17 4 7 4 4 7 9 9 9 8 7 12 10 6 10 3 1 6 6 9 12 17 19 20 20 25 24 21 20 20 19 17 14 16 17 17 9 8 11 10 12 13 13 13 13 14 12 12 13 13 13 14 15 16 13 13 14 13 12 12 11 11 9 9 8 7 6 7 5 5 5 5 4 4 4 5 5 4 4 4 4 3 2
15 7 5 4 4 7 11 6 7 7 9 10 11 12 12 11 13 10 7 2 8 13 10 11 14 17 14 14 14 17 18 14 15 14 13 12 13 15 11 7 7 11 11 10 12 13 13 14 15 15 13 12 13 13 14 15 15 11 15 14 14 12 12 10 11 11 10 10 9 7 7 5 4 3 4 5 5 5 5 4 5 5 5 4 3 2
18 12 4 4 4 6 7 7 10 9 9 10 13 16 16 15 15 14 9 10 8 12 5 5 12 13 7 8 9 3 4 8 9 9 12 13 13 11 11 11 8 7 7 11 14 15 15 14 13 13 14 14 14 14 13 13 14 12 13 14 14 11 11 11 12 12 10 9 9 9 8 7 7 7 7 7 7 7 6 6 4 4 4 3 3 3
11 4 4 9 7 7 9 11 10 10 11 10 7 7 16 15 13 12 11 7 7 8 3 5 7 18 6 7 8 5 8 8 6 7 11 11 11 9 10 8 9 11 9 9 10 12 13 13 14 15 15 16 16 14 12 12 14 14 14 15 14 12 11 11 12 13 10 10 9 10 9 8 8 7 6 6 5 5 5 4 4 3 3 3 3 4
7 4 4 3 8 9 8 12 13 14 9 9 3 2 1 4 8 9 7 7 11 10 11 5 6 18 16 9 10 10 13 9 10 11 12 13 13 14 14 8 10 11 11 11 12 13 13 14 16 18 17 16 17 14 13 13 14 16 17 16 15 12 12 11 12 13 11 10 10 10 9 7 7 7 7 7 5 4 3 3 3 2 3 3 4 4
7 7 9 9 8 7 13 10 2 13 9 1 2 3 3 0 3 1 4 7 8 11 11 6 8 10 13 3 16 14 13 14 15 16 16 17 15 14 16 9 10 12 12 13 12 14 15 16 16 15 16 16 16 15 15 15 14 14 16 15 15 13 12 12 14 13 12 10 10 10 9 8 6 6 5 5 5 4 4 4 3 3 3 3 4 5
3 2 5 10 7 11 3 6 4 8 11 2 3 6 5 3 2 3 4 6 9 8 15 7 11 7 23 4 7 12 13 13 14 15 16 16 14 11 9 8 8 10 10 11 13 13 14 15 15 15 14 15 16 13 12 13 12 14 14 15 16 14 11 12 14 13 13 12 10 10 10 10 8 7 6 5 6 5 5 4 5 4 4 4 5 5
2 2 4 2 10 3 6 6 5 7 5 6 3 2 1 2 4 3 5 5 4 13 16 12 17 13 19 3 9 9 8 12 11 10 12 14 12 12 9 9 8 10 10 10 12 13 14 13 14 14 16 16 13 10 13 13 13 14 13 14 15 14 11 12 14 14 14 12 11 10 11 11 10 10 8 7 6 6 5 5 5 5 5 5 4 4
6 5 2 4 3 5 5 5 6 2 1 3 2 3 2 5 3 4 3 3 4 16 8 16 18 20 14 3 6 10 10 14 12 9 11 10 11 9 7 7 9 10 11 11 11 11 12 12 12 12 13 15 13 11 13 12 13 13 11 13 14 14 13 13 13 14 13 11 11 9 10 11 10 10 8 8 8 7 7 6 5 5 4 4 4 4
9 12 10 4 2 7 5 3 2 3 3 4 5 3 4 4 1 5 4 5 10 12 5 8 14 11 23 20 9 6 5 10 11 9 9 10 11 11 7 9 9 9 9 10 10 10 11 13 14 15 14 13 14 15 17 14 14 12 11 15 16 16 15 14 14 14 14 12 12 11 11 10 9 10 9 8 7 7 6 6 6 5 5 4 4 4
5 4 11 9 4 9 10 10 5 3 10 9 10 8 4 7 6 9 9 8 11 9 8 5 3 14 12 12 14 19 16 12 12 11 10 10 12 11 4 6 7 8 8 9 10 11 12 12 13 13 14 13 12 14 15 15 13 12 12 14 17 16 14 14 14 15 15 13 12 12 11 10 9 9 8 8 7 7 6 5 6 6 5 4 4 4
8 7 10 13 8 13 17 17 12 4 12 13 8 9 9 7 3 7 7 9 10 7 1 3 2 5 1 3 11 18 17 16 13 10 10 13 13 8 5 4 5 5 5 5 9 11 12 12 12 13 14 13 12 14 14 13 13 13 14 16 18 16 15 15 14 13 14 13 13 12 11 10 9 9 8 7 7 7 7 6 6 5 5 4 4 4
14 14 4 11 4 15 14 14 4 6 2 8 7 6 6 11 8 13 10 8 5 8 10 5 7 5 10 6 5 4 9 14 12 12 12 14 13 9 5 6 8 7 7 7 7 8 9 11 11 11 12 12 12 15 13 14 14 15 16 18 19 16 14 14 15 13 14 13 12 13 13 12 10 8 8 7 7 7 7 6 6 6 6 5 4 4
1 9 8 5 1 10 6 2 8 6 7 7 8 9 9 4 6 8 9 5 1 5 17 5 10 12 11 20 17 11 12 13 14 14 15 16 15 13 11 9 8 9 8 7 5 5 9 9 10 10 11 11 11 14 16 18 17 16 16 16 17 14 14 15 15 15 14 14 14 14 13 12 12 11 11 9 10 8 7 6 6 5 6 5 5 4
5 4 2 5 5 0 1 4 1 3 1 9 5 6 5 2 4 2 8 4 7 10 14 8 15 17 11 14 7 15 15 14 15 15 19 17 13 13 12 10 9 10 8 7 6 5 7 9 10 10 10 11 12 14 13 15 13 13 15 15 18 15 17 16 16 15 15 15 14 14 14 13 12 11 11 9 10 8 8 7 6 6 6 6 5 4
2 6 4 3 5 4 1 2 4 3 6 3 2 6 5 5 5 9 4 8 7 11 10 14 20 17 18 17 4 12 16 17 17 17 16 13 11 12 10 11 9 5 7 9 10 9 9 10 11 12 11 10 10 12 12 12 12 12 13 14 17 16 16 16 14 13 12 13 10 11 13 14 12 11 10 9 9 8 8 8 7 7 6 5 6 5
1 8 5 2 1 4 2 5 7 9 6 2 2 4 2 2 4 6 9 5 6 12 9 17 16 18 9 6 8 14 16 17 18 17 15 16 14 11 10 12 12 9 10 10 9 9 8 8 10 12 12 12 13 13 13 14 12 15 15 16 16 13 14 15 16 15 14 13 11 11 12 12 12 11 11 10 10 8 8 8 8 7 7 6 5 5
6 6 11 4 5 5 5 9 10 12 11 6 6 8 5 4 2 5 4 9 10 8 10 10 14 18 4 3 6 7 14 15 16 14 11 11 13 12 11 12 11 9 9 12 11 11 11 12 12 11 10 9 9 9 10 13 14 14 13 16 17 17 18 17 16 15 14 12 12 14 14 14 12 12 11 11 10 9 9 8 8 7 6 5 6 6
3 5 15 5 2 10 11 9 17 17 16 14 15 14 16 10 8 8 12 6 3 7 7 9 16 18 9 4 2 4 6 9 11 10 7 7 8 6 8 9 9 9 8 9 10 11 11 10 10 10 10 9 11 12 13 13 12 14 16 16 16 15 15 17 16 15 14 13 13 15 14 14 12 12 11 11 10 9 9 8 8 7 6 7 6 6
11 4 8 13 10 11 12 6 3 3 2 5 10 10 13 12 11 10 12 6 2 9 11 14 15 21 15 1 1 5 1 3 5 5 6 5 6 7 10 10 10 10 9 9 9 10 10 10 11 12 14 15 15 13 14 13 13 14 16 16 16 16 17 17 15 14 13 13 14 15 14 13 12 12 12 12 10 10 9 8 8 8 7 7 6 6
4 1 4 12 8 7 1 2 1 2 2 2 7 8 9 15 15 13 11 7 8 5 8 11 16 15 16 5 8 7 7 10 10 7 9 10 8 9 10 7 8 7 8 7 6 7 7 6 6 8 11 12 13 14 15 14 13 13 14 16 15 18 18 16 15 14 14 14 14 15 14 13 12 13 12 12 10 11 10 9 8 8 8 7 6 7
3 2 8 5 6 4 12 1 2 1 4 9 11 11 12 11 12 10 3 1 6 15 20 13 16 10 16 4 9 12 16 13 10 13 14 14 9 8 8 8 7 6 6 6 8 8 6 8 10 11 11 11 11 10 11 12 13 14 15 15 16 16 16 15 14 14 14 15 16 15 14 14 13 13 13 12 10 11 10 10 9 8 8 7 7 7
8 5 8 10 12 14 13 17 14 2 8 8 9 11 13 16 14 9 12 10 14 19 25 16 16 21 22 16 21 22 16 7 11 13 8 7 9 7 7 6 6 7 9 10 8 7 10 11 8 8 10 10 11 12 12 12 12 13 13 15 14 15 15 14 13 14 15 15 15 14 15 14 13 13 13 12 11 11 10 9 9 8 8 7 7 7
2 3 12 12 13 14 14 17 9 5 5 6 9 12 10 15 18 17 10 12 20 18 13 17 23 22 18 20 23 25 22 19 24 17 5 8 7 7 7 7 8 10 10 11 11 10 7 7 10 11 9 9 9 10 10 12 13 13 13 15 15 14 13 14 14 15 15 15 14 14 14 14 13 12 12 11 10 10 9 9 9 8 8 7 6 6
1 5 10 18 22 21 19 23 22 23 17 11 11 11 15 15 12 15 15 22 20 9 20 16 25 20 16 20 24 29 28 23 22 24 21 16 7 10 12 10 10 8 6 7 8 10 12 12 10 10 12 11 11 11 10 10 12 13 14 16 15 15 13 12 14 15 14 14 14 13 14 12 12 12 11 10 10 9 9 9 8 7 7 6 6 6
3 8 7 11 14 14 14 18 22 24 25 18 13 15 15 16 13 19 25 27 11 14 20 20 22 19 17 17 22 26 25 26 27 29 24 21 16 11 3 7 11 12 12 12 14 14 13 13 14 13 11 12 12 13 13 12 12 12 12 13 14 13 14 13 14 14 14 14 13 13 13 12 11 11 10 10 10 9 9 8 7 7 6 6 5 4
0 9 7 12 15 14 15 18 21 25 23 22 21 18 17 16 22 27 28 11 15 26 29 22 21 26 19 22 27 29 29 29 28 25 23 21 16 11 5 9 17 16 13 14 15 15 14 16 15 14 15 13 13 14 13 13 13 14 15 15 14 13 12 13 14 14 14 14 13 13 13 12 11 11 10 10 10 9 9 8 7 6 5 5 5 4
7 12 13 12 13 18 21 24 24 24 21 24 22 18 17 19 24 23 15 14 19 23 20 27 25 22 15 22 24 32 30 27 26 28 25 21 22 22 15 15 20 22 17 14 12 13 14 15 16 17 16 15 14 14 13 12 12 12 13 13 14 14 13 13 13 13 13 13 12 13 12 11 11 11 11 10 9 8 8 7 6 6 5 5 5 5
8 11 10 11 13 15 17 22 24 16 22 23 21 19 22 30 32 22 18 18 18 19 22 18 16 17 19 25 29 29 27 27 32 29 23 22 26 21 15 16 18 17 15 13 11 11 10 13 15 16 17 16 17 14 10 11 13 14 14 13 13 13 13 12 12 12 12 12 12 12 12 11 11 10 10 9 9 8 7 7 6 6 5 5 5 5
7 5 7 9 13 15 17 20 16 16 16 17 19 29 37 33 24 22 26 28 26 23 21 17 14 16 20 22 20 22 26 28 28 20 19 23 23 17 15 17 15 13 12 11 13 13 13 12 12 15 16 15 13 13 13 12 11 13 13 13 12 9 10 10 11 11 11 11 11 11 10 10 10 9 9 9 9 8 7 7 6 6 6 6 5 5
6 10 10 7 11 11 17 20 15 12 16 16 23 31 24 25 27 30 30 31 31 24 20 20 21 18 20 22 24 25 29 29 21 14 15 18 18 16 15 15 15 15 15 15 15 15 14 13 9 10 13 14 14 13 10 10 9 8 8 8 8 10 9 10 9 9 10 9 9 10 10 9 9 10 9 9 9 8 8 7 6 6 5 5 5 6
12 11 11 9 9 9 11 13 11 17 16 20 18 7 14 24 28 31 31 28 28 28 28 27 26 27 30 29 26 28 29 28 20 16 19 22 20 13 15 18 19 18 17 17 16 14 13 10 5 5 6 7 9 9 9 8 8 8 8 9 10 8 9 6 7 6 8 8 8 7 8 9 9 10 10 9 9 8 8 7 7 7 6 5 6 6
16 14 8 10 9 7 7 10 12 16 3 4 5 12 17 21 21 19 24 27 31 30 28 26 26 28 29 29 29 29 28 25 16 12 20 22 22 13 15 17 19 20 18 15 14 13 6 6 7 8 8 7 10 8 8 9 9 10 9 9 10 8 8 8 7 7 6 7 7 7 8 9 10 10 10 10 9 8 8 7 7 7 6 5 5 5
20 14 8 12 11 14 9 13 23 4 5 5 5 11 16 16 15 18 22 27 26 24 26 26 26 28 30 30 30 29 26 20 13 15 21 23 22 15 16 17 19 20 17 14 11 9 4 5 6 7 9 10 10 9 9 9 11 13 11 11 9 11 9 10 10 9 9 8 9 8 9 9 10 10 10 9 9 8 8 8 7 6 5 5 5 5
18 19 12 18 12 13 12 11 8 12 16 12 16 18 16 17 24 26 22 27 11 10 12 22 25 28 31 29 27 27 23 15 12 16 21 25 21 11 15 15 16 16 15 12 4 4 4 4 5 8 11 11 10 10 9 12 15 16 13 13 12 15 11 13 10 11 9 9 8 8 8 7 8 9 9 8 8 8 6 6 5 5 5 6 6 6
21 21 20 18 10 12 15 11 12 14 15 10 21 22 25 24 22 23 21 19 6 9 13 24 26 25 25 22 23 24 15 12 14 16 19 21 20 8 11 13 14 14 13 10 8 8 6 6 7 9 10 11 13 10 13 15 16 17 16 15 12 11 11 12 13 10 10 10 10 9 8 8 7 7 8 7 7 6 6 6 5 5 5 4 4 4
25 18 14 18 16 13 16 13 12 6 12 12 16 18 20 23 24 15 21 7 11 21 27 29 29 27 24 23 22 19 13 16 16 18 19 20 14 8 10 12 12 10 9 6 4 5 6 8 9 7 10 14 14 13 16 16 17 19 17 11 11 14 17 19 16 14 12 10 10 9 9 9 9 8 8 8 7 6 5 4 4 4 5 4 4 4
17 13 14 25 15 19 24 15 9 10 5 7 16 16 21 22 20 21 23 2 16 22 24 25 26 26 23 21 16 16 16 20 20 18 16 12 5 6 7 6 4 4 8 8 7 7 7 8 10 12 11 8 11 12 13 17 17 16 15 14 11 17 12 13 15 15 11 10 10 10 10 8 8 9 8 7 7 6 5 4 5 5 5 4 3 3
12 12 12 18 21 16 15 18 18 16 11 10 12 19 16 10 14 20 16 21 24 23 20 20 23 21 20 21 19 19 19 20 18 14 14 15 15 14 8 6 5 2 0 1 4 6 5 5 4 3 4 5 10 13 16 18 19 17 13 12 12 11 11 12 13 11 12 11 10 10 10 10 9 8 8 8 7 7 5 5 4 4 4 4 3 3
13 11 14 15 12 14 9 13 10 15 7 21 23 19 15 15 17 16 21 18 20 20 19 17 17 18 19 21 21 21 21 19 18 17 16 15 13 12 12 9 11 11 10 7 6 8 9 8 10 10 9 7 9 11 15 18 19 19 18 16 12 12 13 11 11 12 12 12 12 11 11 11 11 9 7 7 7 7 7 6 5 4 4 4 3 5
8 12 7 10 11 11 15 14 12 12 16 19 21 17 15 24 18 22 19 19 17 16 15 15 16 17 17 18 18 18 17 16 17 17 16 12 11 11 9 8 9 9 9 9 7 10 9 10 9 8 7 9 11 14 16 19 18 17 19 16 11 10 12 12 11 12 12 11 12 12 10 11 12 11 9 9 8 7 7 6 6 5 5 5 5 5
3 7 9 9 5 9 6 4 8 10 9 9 20 21 18 19 17 20 21 20 18 16 14 14 14 15 15 16 17 17 18 17 18 16 15 14 13 11 10 12 13 14 14 13 10 9 9 14 13 11 8 9 12 12 16 14 18 21 18 11 14 13 14 13 14 13 13 12 11 10 10 9 9 10 9 9 9 8 7 7 6 6 5 5 5 4
13 8 8 9 6 10 14 11 8 10 12 13 11 11 17 17 15 13 14 15 14 18 16 16 16 17 18 16 15 13 14 15 17 16 14 12 11 8 5 6 9 10 9 7 5 10 11 8 8 11 12 9 10 15 16 16 17 24 21 15 12 12 16 19 22 18 13 11 11 11 11 12 10 9 9 9 7 7 7 7 7 6 6 5 5 4
7 11 8 6 11 12 7 10 15 12 14 15 16 15 13 10 9 6 10 9 9 11 14 15 14 14 15 15 13 14 15 17 18 17 16 13 13 11 7 9 10 11 11 12 14 9 8 9 10 12 13 15 13 16 17 18 13 13 15 17 13 13 21 22 21 14 13 12 12 12 12 12 10 9 8 8 7 6 5 6 5 5 6 5 5 4
11 8 20 12 18 14 12 14 18 24 24 19 13 15 17 14 12 9 5 5 6 6 8 11 12 14 12 13 12 14 16 15 16 16 15 14 13 11 9 6 7 5 5 3 1 7 6 10 13 14 15 16 15 16 18 16 15 14 18 12 16 18 23 22 15 14 13 14 11 11 11 10 13 12 8 7 8 7 6 5 5 6 6 6 6 5
17 19 14 8 17 15 23 22 19 22 21 19 13 4 5 6 9 9 10 11 10 12 13 12 8 9 10 13 15 12 12 13 13 14 15 13 13 11 12 6 4 7 7 7 9 12 15 16 16 16 17 18 14 16 17 17 15 16 19 19 19 22 22 15 14 13 13 12 10 10 9 8 10 9 9 8 7 6 6 6 6 6 4 3 3 4
11 15 17 16 16 17 13 15 17 15 16 19 16 10 13 12 10 11 10 11 11 11 11 13 14 14 13 13 13 13 13 14 14 14 15 15 14 15 12 10 7 8 10 12 11 14 16 14 16 16 18 15 14 17 18 17 15 17 18 22 21 23 25 22 12 12 11 10 9 9 9 8 8 7 7 8 7 6 3 2 6 5 5 6 10 9
15 16 13 13 9 17 15 14 15 19 20 19 15 11 12 10 9 11 14 16 16 15 14 14 15 15 15 15 13 11 11 13 14 14 13 13 16 16 16 14 12 9 11 11 11 13 15 16 16 14 14 14 16 18 18 15 17 21 19 20 18 19 24 22 11 10 10 10 9 10 10 9 8 7 7 7 7 6 6 4 5 10 10 8 9 6
Wind_Direction
165 214 230 230 235 234 229 222 233 249 273 284 288 278 272 274 273 272 274 175 205 244 247 250 254 257 261 263 267 265 269 271 269 266 264 263 267 263 258 250 243 223 214 177 187 185 184 180 180 179 178 175 176 176 174 171 171 169 166 165 169 172 170 168 167 172 171 175 172 171 175 171 167 169 160 167 173 169 162 144 166 164 186 170 197 251
200 234 240 242 248 262 279 281 246 254 261 266 270 274 274 265 268 266 282 141 196 198 267 264 269 262 262 265 263 264 264 264 264 263 261 269 268 265 259 254 241 238 159 158 179 178 174 171 171 172 173 171 173 178 177 175 175 171 169 170 168 173 174 177 174 172 179 179 180 172 176 170 163 160 168 171 170 170 145 156 175 179 173 182 201 235
215 227 244 247 261 87 29 275 266 263 265 257 248 260 270 264 266 275 262 130 158 197 264 270 274 273 269 266 262 256 253 250 255 253 268 270 272 270 267 258 243 183 167 168 181 171 172 167 169 170 172 177 180 176 180 175 173 173 172 174 173 175 176 178 175 173 179 175 173 178 168 163 149 147 152 145 138 147 160 170 176 181 178 186 199 214
236 240 249 254 192 251 224 197 243 250 243 246 234 232 242 258 284 284 144 172 192 223 290 297 288 277 270 254 250 248 247 245 248 259 258 259 261 262 262 259 226 179 173 180 181 179 173 170 173 173 174 176 177 176 179 178 178 175 179 176 174 174 174 176 177 174 170 153 129 111 124 119 135 153 140 141 154 167 175 187 184 189 186 187 197 203
225 246 63 116 209 223 246 207 215 224 239 221 233 245 254 256 248 250 304 321 267 243 241 291 277 270 252 247 237 237 236 242 246 256 255 252 251 257 270 257 223 192 179 181 182 178 177 179 183 183 177 172 180 179 181 181 179 178 180 177 176 173 176 175 169 167 151 133 127 118 112 116 105 109 159 176 187 185 184 189 185 190 182 185 191 207
248 243 117 106 188 206 222 230 217 223 249 244 218 227 243 255 271 280 295 3 312 298 147 317 313 274 254 237 231 165 110 203 240 231 246 246 248 246 244 234 193 190 177 187 184 180 180 183 181 181 179 179 182 184 183 178 178 173 176 177 176 173 175 173 166 161 149 153 156 157 160 169 180 180 183 191 187 179 183 192 182 170 168 185 199 213
247 94 174 224 207 205 227 244 244 191 244 247 244 238 248 257 272 284 292 318 280 271 95 351 335 292 148 245 232 211 196 201 189 209 240 245 249 224 230 208 182 177 186 192 182 173 176 182 181 184 185 184 185 185 173 171 176 174 174 177 176 174 174 170 167 164 159 163 172 176 179 181 181 184 184 182 172 165 164 165 167 175 180 192 205 218
189 169 175 215 222 225 230 245 231 204 231 243 74 323 97 255 255 259 269 243 266 290 282 171 233 279 287 222 228 227 244 207 199 214 225 235 233 248 251 177 180 180 183 181 182 181 181 181 185 188 188 185 187 178 170 172 178 177 178 176 175 174 173 164 165 167 169 170 174 175 179 181 181 184 167 158 156 165 163 163 171 193 206 199 207 220
179 179 187 191 198 214 230 238 125 191 209 270 57 29 64 33 243 197 235 263 275 301 277 205 180 272 259 249 195 204 229 229 232 233 242 249 247 234 240 231 175 179 178 176 178 184 184 187 189 188 188 189 182 180 174 177 178 175 178 176 174 173 168 163 166 167 172 173 173 172 170 171 175 169 163 154 160 165 171 179 184 201 216 221 224 225
35 43 199 189 169 225 185 41 349 188 220 110 126 75 74 86 96 219 262 270 280 272 263 198 171 245 280 229 186 192 211 223 225 233 238 244 244 241 224 211 171 174 173 182 184 183 187 188 188 189 182 181 185 180 171 168 167 173 173 174 175 171 167 165 167 168 172 172 169 172 173 172 170 167 171 175 173 179 179 184 193 198 208 215 215 215
86 174 26 227 218 242 85 54 32 19 49 117 135 134 122 193 215 200 238 261 288 255 250 202 189 193 275 285 164 149 198 203 211 223 229 237 237 242 214 178 171 176 176 178 183 184 186 185 183 177 181 180 175 164 165 169 170 173 172 170 172 171 165 165 169 170 172 171 174 174 174 173 171 170 171 173 182 180 176 192 193 201 210 210 213 214
196 149 202 222 51 98 112 85 50 36 42 189 147 234 250 235 195 246 224 173 244 266 247 174 192 189 241 131 167 206 195 189 192 210 232 244 248 244 185 179 175 176 178 174 176 179 176 171 176 175 177 176 171 158 173 178 175 174 170 172 173 174 171 168 168 169 169 169 171 172 171 172 175 168 170 180 180 182 187 191 196 198 208 216 217 217
227 211 198 108 231 172 158 197 96 115 170 217 197 191 235 259 225 243 161 221 213 245 90 175 181 218 228 240 256 249 229 209 190 218 246 258 252 243 207 167 173 172 167 165 172 169 172 176 176 180 178 171 172 179 181 177 178 171 171 174 176 182 176 170 168 169 169 166 171 170 169 173 176 175 173 179 178 185 187 188 196 200 209 216 222 221
246 91 175 184 104 215 179 207 173 211 188 188 196 191 206 256 242 261 251 241 263 251 224 137 189 245 272 275 236 250 239 221 214 214 234 244 251 246 225 154 159 171 169 169 170 173 178 177 180 180 178 176 177 178 183 180 174 176 178 179 183 186 176 169 171 171 170 170 170 171 171 174 174 176 173 176 178 184 187 188 192 200 208 214 223 229
270 249 197 149 223 162 192 212 208 245 163 200 198 177 207 214 246 271 254 254 250 287 97 170 123 231 336 281 187 217 228 217 218 221 216 232 238 233 99 105 114 153 178 174 178 179 178 179 174 179 181 179 177 178 179 179 179 172 180 185 189 185 178 171 171 171 170 170 171 169 172 169 171 170 170 175 176 178 181 186 189 197 203 213 219 225
231 252 140 165 27 149 189 210 95 106 147 189 193 218 246 231 222 242 254 282 316 328 294 178 219 282 262 327 147 206 223 206 214 221 229 236 237 217 161 174 184 180 185 193 190 179 178 176 173 174 182 179 175 177 180 181 182 184 186 187 189 183 171 169 172 172 169 169 169 171 169 170 168 165 167 171 174 175 179 186 189 198 204 211 219 225
114 253 122 121 174 179 179 107 188 177 224 155 160 204 205 27 231 262 283 281 89 285 261 246 262 250 264 263 234 181 195 210 201 215 231 237 234 228 219 215 195 193 182 183 196 189 174 171 177 183 182 178 170 178 186 188 187 185 178 184 182 176 170 172 174 171 173 169 168 172 170 169 168 167 172 174 174 172 175 181 192 199 204 212 219 221
260 277 105 170 224 206 7 322 36 355 40 113 217 210 67 347 32 246 266 269 249 253 271 284 270 283 283 292 141 181 198 203 203 217 232 233 230 227 224 224 218 204 175 156 169 186 187 183 182 185 193 186 180 181 180 184 186 183 184 179 182 178 176 176 175 173 174 169 168 169 170 170 167 167 172 169 167 169 173 180 191 199 205 211 212 211
153 280 180 253 24 87 4 136 234 198 279 276 194 358 178 202 207 211 246 252 260 255 273 267 274 268 263 264 247 194 189 200 207 219 224 223 219 228 225 230 235 194 160 178 184 187 193 194 191 192 193 191 186 184 182 178 175 179 181 184 187 183 174 172 171 174 171 168 167 169 168 167 166 166 167 165 163 167 178 184 193 200 206 205 206 208
161 239 244 2 153 114 160 192 221 179 196 148 331 248 37 336 231 191 200 241 237 263 267 274 282 274 254 251 247 208 194 197 208 217 219 221 219 219 208 231 231 209 198 197 186 179 181 198 204 195 188 190 189 182 182 179 178 180 181 180 186 175 167 167 172 173 171 169 160 161 162 165 165 163 164 165 164 173 180 187 195 199 204 207 204 214
240 146 259 96 297 159 223 191 215 171 180 181 219 229 185 208 12 339 284 230 221 237 244 273 276 272 305 221 255 241 196 201 212 217 212 213 220 219 216 227 236 231 206 199 196 190 185 189 195 195 189 190 191 188 181 181 180 179 177 181 182 174 171 171 173 169 171 165 162 161 164 164 163 162 161 162 168 173 180 185 193 199 202 200 209 205
199 179 233 164 169 211 231 182 199 200 183 183 183 203 197 173 201 218 245 214 234 227 237 242 253 264 243 80 267 252 199 211 227 227 198 202 217 210 227 235 231 237 225 214 206 196 193 190 183 182 180 181 183 187 185 181 174 177 183 181 180 173 173 172 173 172 167 165 162 164 163 162 161 161 160 163 167 174 178 185 189 193 193 203 205 204
200 181 216 224 208 225 226 231 261 335 272 234 195 210 192 194 189 199 237 210 166 230 245 242 262 255 251 16 300 236 244 307 284 193 212 223 216 210 228 229 229 229 228 212 204 201 203 194 185 184 181 184 187 187 184 179 179 182 182 179 184 178 178 175 170 166 162 162 163 164 162 159 161 159 161 164 168 176 180 182 186 187 193 199 199 204
81 132 223 256 284 287 95 74 27 8 224 292 239 232 197 210 202 218 231 249 249 192 212 236 238 258 271 191 246 271 306 280 261 249 237 238 213 214 231 221 226 225 225 226 217 206 190 181 186 175 183 185 187 188 188 183 179 181 183 185 183 184 177 171 166 164 161 162 163 162 159 161 159 159 162 167 172 176 179 179 182 185 191 194 197 201
205 179 215 249 260 307 277 241 176 35 224 224 225 217 224 224 217 229 303 78 256 235 244 240 249 249 261 148 216 246 258 245 229 234 243 255 234 226 216 215 217 216 219 216 211 197 163 168 188 200 192 188 187 189 188 183 182 183 185 185 186 184 176 168 162 161 163 161 160 163 161 161 160 162 165 167 171 175 176 178 178 182 189 190 197 202
210 172 179 218 226 236 235 237 242 223 208 228 244 234 218 220 222 221 234 226 245 241 238 242 260 254 265 282 283 279 276 230 236 240 242 219 234 203 210 211 205 205 213 211 211 171 189 202 193 192 195 188 189 191 188 187 184 185 185 188 184 179 174 167 162 162 163 162 161 163 163 161 161 163 165 166 168 171 174 174 179 181 185 189 196 200
231 202 207 227 233 236 241 260 280 68 143 201 212 225 217 220 222 226 235 236 233 241 238 240 249 263 271 276 276 279 276 276 282 279 198 221 219 225 225 220 216 216 214 214 208 208 197 180 202 213 204 197 191 189 189 184 182 183 183 185 183 180 171 166 162 164 163 164 161 160 162 161 161 160 162 164 166 165 170 174 177 180 179 182 190 199
34 253 221 233 238 242 247 256 266 270 263 204 226 219 219 217 213 220 225 236 240 275 255 246 252 258 259 265 270 273 276 280 275 278 275 268 228 213 226 223 232 233 225 215 215 206 204 207 204 197 197 192 192 190 189 189 186 184 184 184 181 176 168 164 163 165 163 160 162 161 160 157 154 155 158 159 158 162 167 168 170 173 171 174 187 199
200 245 243 257 255 261 263 269 269 270 268 263 218 229 221 215 216 222 228 237 230 239 254 252 258 262 261 260 265 268 277 277 277 278 279 283 281 269 175 208 225 229 224 219 224 221 215 212 211 201 189 195 185 187 190 186 186 185 186 184 180 174 171 162 160 164 161 161 160 158 154 147 149 149 147 151 153 158 162 162 162 163 167 174 186 199
171 237 254 254 271 269 268 262 262 264 269 271 270 268 264 243 236 234 242 228 214 243 248 257 261 261 264 266 268 274 274 273 276 280 283 281 277 261 223 267 272 262 235 229 234 232 223 222 220 212 205 190 181 188 186 185 186 187 184 182 177 171 163 155 166 161 160 161 157 150 147 144 140 142 144 147 154 158 158 159 157 160 169 176 189 195
199 243 243 256 262 255 251 253 255 257 261 266 268 273 285 286 268 256 264 251 241 247 253 251 255 266 268 265 266 267 265 271 278 273 275 281 279 275 280 277 273 274 269 253 242 237 232 229 226 226 219 202 185 190 185 182 181 180 180 179 175 167 162 159 160 159 157 156 149 142 139 138 142 142 148 151 149 151 152 153 154 157 166 175 188 195
191 251 223 243 245 246 239 244 242 248 257 263 270 275 266 256 257 263 258 249 243 245 249 255 253 250 252 256 257 259 269 270 266 270 275 275 272 279 283 270 265 269 266 263 259 256 241 227 225 226 224 214 204 189 176 175 179 179 183 175 169 163 156 155 154 150 152 146 137 138 138 141 140 142 145 144 148 146 147 145 149 157 167 178 188 197
188 203 208 213 234 237 236 242 240 249 262 260 253 246 242 246 257 264 260 259 255 255 259 254 243 232 242 252 264 269 263 261 261 264 265 266 271 274 271 267 266 261 263 264 262 260 260 252 230 225 225 221 206 195 189 173 165 178 178 170 161 134 144 145 145 146 144 137 140 140 141 139 139 137 140 144 142 140 143 145 153 163 174 186 188 195
196 216 229 206 243 245 235 244 244 242 228 226 229 234 236 245 244 245 248 249 250 244 243 241 257 267 266 258 255 258 261 259 258 254 256 265 275 278 274 269 268 270 272 269 267 267 267 264 247 223 221 214 207 196 170 164 160 157 142 127 117 135 139 139 143 136 140 137 139 140 137 135 133 136 138 138 138 142 145 152 164 170 177 178 188 202
214 219 233 219 238 229 229 245 241 228 229 232 242 230 233 236 240 243 248 252 256 255 253 256 257 257 256 258 257 257 258 262 269 274 275 271 268 266 271 276 276 273 272 273 272 267 262 260 222 204 196 193 169 139 139 154 144 129 124 131 135 135 134 133 132 129 136 132 132 129 132 132 135 135 139 139 142 145 151 157 164 173 179 181 192 202
226 224 217 225 227 251 232 210 239 238 234 309 194 222 225 235 240 254 260 253 250 249 253 251 250 249 252 257 258 256 258 264 271 274 269 270 268 262 260 265 270 272 271 266 266 268 240 186 195 192 189 152 137 139 147 154 137 131 134 125 133 136 137 132 128 128 126 126 131 135 138 137 138 135 139 142 145 148 155 162 168 171 178 182 194 202
220 229 213 248 200 236 209 209 231 259 287 155 167 216 216 219 220 220 243 244 233 237 240 249 250 251 252 252 254 259 263 269 276 272 265 262 261 253 249 254 258 263 265 263 258 249 191 188 180 173 144 141 146 145 156 146 135 128 129 136 138 133 140 145 147 150 145 141 142 146 146 146 139 137 141 143 144 149 156 160 167 170 175 179 196 202
199 215 200 232 221 213 233 237 233 226 235 207 211 226 229 220 227 236 238 255 211 229 226 243 243 245 249 251 255 258 260 269 259 258 261 263 260 239 246 245 250 253 257 260 204 182 169 153 143 148 148 147 158 160 151 141 143 137 136 146 145 147 155 155 158 149 144 139 136 133 135 133 130 132 134 138 142 147 150 153 162 169 181 180 194 200
218 217 222 221 232 212 232 232 227 229 233 174 221 221 231 237 233 241 250 252 138 230 235 246 246 244 245 248 251 256 259 250 245 249 254 259 264 236 237 244 246 244 245 241 216 210 182 165 155 149 148 144 163 168 145 149 155 157 157 149 154 154 152 157 138 143 141 135 128 124 117 111 111 116 124 127 133 139 146 156 168 171 176 191 196 199
219 217 212 229 228 222 238 234 233 184 248 193 214 220 227 236 241 243 250 245 150 215 228 237 243 248 250 245 245 251 250 255 247 248 247 251 265 259 247 248 241 233 229 211 196 188 158 135 123 149 162 181 178 151 160 158 156 163 160 161 156 158 163 155 144 118 103 113 115 115 116 123 123 123 127 132 129 132 136 147 164 176 186 199 198 200
218 216 207 224 216 223 223 243 254 244 224 154 218 218 223 230 235 236 241 209 215 217 223 231 240 242 245 250 249 255 240 245 251 255 261 270 275 265 246 249 260 237 222 207 201 149 153 161 174 182 187 161 143 152 149 159 160 168 169 162 162 179 164 137 124 126 121 119 118 120 120 119 121 122 122 127 131 133 145 161 172 176 191 201 212 195
214 200 215 212 224 222 224 234 236 247 215 206 226 227 225 233 232 236 240 234 242 239 238 236 243 245 250 251 253 254 259 259 261 259 257 257 255 255 240 219 224 248 52 73 134 153 136 146 149 126 124 140 133 149 157 162 172 167 156 164 182 158 128 134 135 127 126 126 123 121 120 122 121 119 122 126 130 136 157 171 167 177 186 203 190 194
178 202 208 205 216 228 227 235 230 233 144 199 226 229 211 228 234 239 249 244 245 250 248 248 247 251 247 255 252 257 262 263 262 258 252 250 251 248 237 202 210 209 200 177 182 190 166 168 182 183 170 152 151 149 164 168 175 172 167 176 159 135 140 133 131 131 130 129 129 130 129 128 128 128 128 135 142 150 160 158 166 188 196 196 192 206
173 229 215 212 182 216 216 216 230 213 221 201 207 226 198 219 230 235 243 254 250 254 253 253 249 253 256 258 264 265 262 259 256 256 257 253 246 242 237 210 212 213 213 211 195 173 178 185 168 172 155 155 163 167 168 174 177 172 172 170 135 135 123 132 134 132 131 132 133 132 133 135 136 135 138 143 148 158 159 165 172 187 191 194 205 202
100 311 342 311 267 245 265 309 310 341 313 227 225 236 240 241 241 247 250 253 260 261 266 270 272 271 268 270 265 263 264 259 259 257 257 252 247 236 221 208 205 205 204 192 185 176 183 190 188 177 162 160 167 168 178 178 175 174 176 150 141 147 146 143 141 136 135 136 135 130 128 129 129 135 136 144 152 156 161 165 174 184 187 191 208 200
314 287 305 298 310 313 301 275 307 327 319 314 285 278 270 276 295 327 320 306 303 300 304 303 306 304 306 308 310 300 289 281 274 272 268 266 263 261 227 211 207 208 196 184 181 186 194 187 179 180 182 172 177 177 183 183 176 178 174 135 148 149 139 135 133 134 132 128 129 131 131 127 126 128 137 148 158 163 162 163 178 182 177 189 194 192
295 317 315 291 312 325 284 24 352 334 323 321 316 310 311 322 307 328 342 339 338 344 335 332 331 332 329 338 337 327 319 323 324 320 312 305 299 289 257 232 227 207 195 202 207 170 175 180 184 193 190 189 175 178 183 187 184 176 143 160 146 148 137 138 127 131 134 134 128 134 138 135 139 139 144 156 156 162 158 167 177 174 177 187 185 185
286 6 321 306 300 283 296 324 314 310 296 288 292 304 306 324 329 334 294 279 299 308 310 312 328 330 343 327 330 321 318 319 315 310 308 310 312 310 303 282 266 256 238 242 123 169 182 191 200 200 194 198 185 178 187 188 183 168 148 125 146 128 138 143 147 142 143 136 134 137 141 137 137 138 145 156 159 159 161 173 178 177 186 186 182 181
289 316 274 331 293 297 294 284 281 283 285 291 298 328 10 352 324 313 309 309 319 316 314 313 314 302 309 304 307 303 301 296 293 300 301 303 300 294 290 284 236 227 216 199 194 185 197 203 204 203 197 202 177 173 185 188 180 156 155 153 153 153 145 149 133 127 129 132 129 132 134 128 143 148 144 148 155 160 163 169 175 181 176 179 185 181
259 254 273 284 281 278 268 296 311 306 295 296 292 318 317 321 316 307 313 312 314 311 305 302 299 297 289 284 284 284 278 276 278 282 285 284 282 284 286 278 248 228 218 212 202 200 210 208 203 201 202 200 178 182 187 186 171 154 145 146 151 153 146 135 134 127 134 135 130 129 127 130 138 132 137 144 147 145 136 204 193 180 173 183 197 194
262 262 262 264 267 276 286 271 267 272 273 275 298 320 319 316 319 320 315 307 305 298 292 290 293 293 291 287 279 276 275 273 274 275 275 276 275 275 275 276 268 240 226 212 203 210 211 211 208 205 202 195 183 186 186 178 155 144 144 153 154 163 149 135 134 130 135 139 136 140 133 135 132 139 141 145 144 147 147 158 199 209 201 187 187 186